{"data":{"norad_id":67824,"epoch":"2026-05-25T04:18:45.520128Z","epoch_age_seconds":59813,"freshness":"FRESH","line1":"1 67824U 26033D   26145.17969352  .00011920  00000+0  44190-3 0  9994","line2":"2 67824  43.0000 194.9578 0001075 280.2291  79.8439 15.27586500 16372","mean_motion":15.275865,"eccentricity":0.0001075,"inclination_deg":43,"raan_deg":194.9578,"arg_perigee_deg":280.2291,"mean_anomaly_deg":79.8439,"bstar":0.0004419,"rev_number":1637,"period_min":94.266347601265,"perigee_km":482.29205735728,"apogee_km":483.76720818333,"semimajor_km":6861.1666327703,"source":"CELESTRAK","updated_at":"2026-05-25T13:38:21.697809Z"}}